Regional Weather Roundup
Issued by NWS

Home | Current Version | Previous Version | Graphics & Text | Print | Product List | Glossary On
Versions: 1 2 3 4 5 6 7 8 9 10 11 12 13 14 15 16 17 18 19 20 21 22 23 24 25 26 27 28 29 30 31 32 33 34 35 36 37 38 39 40 41 42 43 44 45 46 47 48 49 50
000
ASUS45 KABQ 242301
RWRNM
NEW MEXICO REGIONAL WEATHER ROUNDUP
NATIONAL WEATHER SERVICE ALBUQUERQUE NM
500 PM MDT TUE APR 24 2018

NOTE: "FAIR" MEANS FEW OR NO CLOUDS BELOW 12,000 FEET AGL WITH NO
       SIGNIFICANT WEATHER OR OBSTRUCTIONS TO VISION.

      THIS PRODUCT IS RELEASED AS TWO VERSIONS.  ONE VERSION NEAR
      THE TOP OF THE HOUR CONTAINING PRELIMINARY DATA FROM ALBUQUERQUE
      AND OTHER STATIONS.  A FINAL VERSION WITH ADDITIONAL DATA IS
      ISSUED ABOUT 10 MINUTES AFTER THE HOUR.

NMZ501-503-504-510>518-250000-
NORTHWEST PLATEAU/NORTHCENTRAL MOUNTAINS

CITY           SKY/WX    TMP DP  RH WIND       PRES   REMARKS
FARMINGTON     FAIR      77  17  10 NW15G29   30.02F
LOS ALAMOS     FAIR      72  14  11 S13G20    30.13S
SANTA FE       FAIR      78  13   8 S8G20     30.08F
TAOS           FAIR      69  29  22 S12G24    30.11R
ANGEL FIRE     CLOUDY    47  32  56 E18G31    30.24R

$$
NMZ402-403-502-505>509-250000-
WESTCENTRAL MOUNTAINS/SOUTHWEST MOUNTAINS

CITY           SKY/WX    TMP DP  RH WIND       PRES   REMARKS
GALLUP         FAIR      77   8   7 W12G25    30.11F
GRANTS         FAIR      78   7   6 W18       30.11F
SILVER CITY    FAIR      82  15   8 W14G21    30.08F

$$
NMZ407-409-411-412-250000-
SOUTHERN DESERTS

CITY           SKY/WX    TMP DP  RH WIND       PRES   REMARKS
DEMING         FAIR      88  19   8 W8        30.00F
LAS CRUCES     FAIR      89  18   7 W13G18    30.01F
ALAMOGORDO     FAIR      88  19   8 W7        29.99F
T OR C         FAIR      89   8   5 S16G22    29.97F

$$
NMZ519>523-250000-
CENTRAL VALLEYS/CENTRAL HIGHLANDS

CITY           SKY/WX    TMP DP  RH WIND       PRES   REMARKS
ALBUQUERQUE    PTSUNNY   81  14   8 S7        30.01F
DOUBLE EAGLE   PTSUNNY   82  12   7 S17G23    30.05F
MORIARTY ARPT  FAIR      74  33  22 SE22      30.13R
CLINES CORNERS FAIR      66  33  29 SE20G33   30.19S
BELEN          FAIR      85  14   7 SE7G18    30.01S
SOCORRO        FAIR      86  17   8 SE18      29.99F

$$
NMZ524>526-539-540-250000-
SOUTHCENTRAL MOUNTAINS

CITY           SKY/WX    TMP DP  RH WIND       PRES   REMARKS
RUIDOSO        FAIR      72  28  20 SE17G26   30.19S

$$
NMZ527>531-250000-
NORTHEAST HIGHLANDS/NORTHEAST PLAINS

CITY           SKY/WX    TMP DP  RH WIND       PRES   REMARKS
LAS VEGAS      FAIR      62  34  35 SE13G20   30.20R
RATON          FAIR      46  30  53 NE18G38   30.26R
CLAYTON        CLOUDY    40  34  79 N29G37    30.27S WCI  29

$$
NMZ532>537-250000-
EASTCENTRAL PLAINS

CITY           SKY/WX    TMP DP  RH WIND       PRES   REMARKS
SANTA ROSA     FAIR      65  38  37 NE20G25   30.14R
TUCUMCARI      FAIR      59  39  47 NE29G35   30.16R
CANNON AFB     NOT AVBL
CLOVIS AIRPORT FAIR      64  43  46 NE28G40   30.12R

$$
NMZ028-029-538-250000-
SOUTHEAST PLAINS

CITY           SKY/WX    TMP DP  RH WIND       PRES   REMARKS
ROSWELL        FAIR      86  37  17 NE21      29.97S
ARTESIA        FAIR      90  28  11 NE21      29.92F
CARLSBAD       FAIR      92  25   9 W5        29.90F
HOBBS          SUNNY     91  18   6 VRB6      29.94F


$$



USA.gov is the U.S. government's official web portal to all federal, state and local government web resources and services.